TimeCDT,TemperatureF,Dew PointF,Humidity,Sea Level PressureIn,VisibilityMPH,Wind Direction,Wind SpeedMPH,Gust SpeedMPH,PrecipitationIn,Events,Conditions,WindDirDegrees,DateUTC
12:53 AM,75.0,66.0,73,29.67,9.0,South,18.4,-,N/A,,Clear,180,2012-10-22 05:53:00
1:53 AM,75.0,66.0,73,29.66,9.0,South,18.4,25.3,N/A,,Clear,180,2012-10-22 06:53:00
2:53 AM,73.9,64.9,73,29.66,9.0,South,18.4,26.5,N/A,,Clear,190,2012-10-22 07:53:00
3:53 AM,73.9,64.9,73,29.67,9.0,South,15.0,-,N/A,,Clear,190,2012-10-22 08:53:00
4:53 AM,72.0,64.0,76,29.67,9.0,South,16.1,-,N/A,,Clear,190,2012-10-22 09:53:00
5:53 AM,71.1,64.0,78,29.68,9.0,South,16.1,25.3,N/A,,Clear,190,2012-10-22 10:53:00
7:53 AM,68.0,63.0,84,29.73,10.0,SSW,11.5,-,N/A,,Mostly Cloudy,200,2012-10-22 12:53:00
8:53 AM,69.1,64.0,84,29.75,8.0,SSW,9.2,-,N/A,,Mostly Cloudy,210,2012-10-22 13:53:00
9:53 AM,72.0,61.0,68,29.78,10.0,SW,10.4,-,N/A,,Mostly Cloudy,230,2012-10-22 14:53:00
10:53 AM,68.0,54.0,61,29.81,10.0,West,8.1,-,N/A,,Mostly Cloudy,280,2012-10-22 15:53:00
11:53 AM,69.1,48.9,49,29.81,10.0,WSW,10.4,-,N/A,,Mostly Cloudy,250,2012-10-22 16:53:00
12:53 PM,71.1,51.1,49,29.81,10.0,SW,10.4,-,N/A,,Mostly Cloudy,220,2012-10-22 17:53:00
1:53 PM,72.0,51.1,48,29.79,10.0,SSW,12.7,21.9,N/A,,Mostly Cloudy,200,2012-10-22 18:53:00
2:53 PM,70.0,52.0,53,29.81,10.0,SW,9.2,-,N/A,,Overcast,230,2012-10-22 19:53:00
3:53 PM,71.1,48.9,45,29.81,10.0,SSW,8.1,-,N/A,,Overcast,210,2012-10-22 20:53:00
4:53 PM,70.0,51.1,51,29.80,10.0,SW,4.6,-,N/A,,Mostly Cloudy,220,2012-10-22 21:53:00
5:53 PM,69.1,52.0,54,29.79,10.0,Calm,Calm,-,0.00,,Mostly Cloudy,0,2012-10-22 22:53:00
6:53 PM,68.0,52.0,56,29.78,10.0,East,3.5,-,N/A,,Mostly Cloudy,90,2012-10-22 23:53:00
7:53 PM,63.0,52.0,67,29.79,10.0,SE,6.9,-,N/A,,Mostly Cloudy,140,2012-10-23 00:53:00
8:53 PM,63.0,52.0,67,29.80,10.0,ESE,5.8,-,N/A,,Scattered Clouds,110,2012-10-23 01:53:00
9:53 PM,64.0,55.0,73,29.80,10.0,SSE,9.2,-,N/A,,Partly Cloudy,150,2012-10-23 02:53:00
10:53 PM,66.9,57.0,70,29.80,10.0,South,12.7,-,N/A,,Clear,180,2012-10-23 03:53:00
11:53 PM,68.0,57.2,68,29.82,10.0,South,13.8,-,N/A,,Clear,180,2012-10-23 04:53:00